Regional Weather Roundup
Issued by NWS

Home | Current Version | Previous Version | Graphics & Text | Print | Product List | Glossary On
Versions: 1 2 3 4 5 6 7 8 9 10 11 12 13 14 15 16 17 18 19 20 21 22 23 24 25 26 27 28 29 30 31 32 33 34 35 36 37 38 39 40 41 42 43 44 45 46 47 48
000
ASUS44 KMEG 241700
RWRTN
TENNESSEE HOURLY STATE WEATHER ROUNDUP
NATIONAL WEATHER SERVICE MEMPHIS TN
1200 PM CDT WED MAY 24 2017

TNZ002-004-019-021-049-052-054-088>092-241800-
WEST TENNESSEE

CITY           SKY/WX    TMP DP  RH WIND       PRES   REMARKS
MEMPHIS INTL   PTSUNNY   67  53  61 NW14      29.58F
NWS MEMPHIS      N/A     65 N/A N/A MISG        N/A
JACKSON        PTSUNNY   66  56  70 NW12      29.55S
DYERSBURG        N/A    N/A N/A N/A MISG        N/A
$$

TNZ008-025-027-028-033-062-065-066-241800-
NORTH MIDDLE TENNESSEE

CITY           SKY/WX    TMP DP  RH WIND       PRES   REMARKS
NASHVILLE      CLOUDY    66  60  81 CALM      29.40F
CLARKSVILLE    LGT RAIN  57  54  89 NW20      29.48R FOG
SMYRNA         LGT RAIN  66  62  87 SW10      29.40F
CROSSVILLE     PTSUNNY   65  58  78 S10G17    29.48F
$$

TNZ061-075-076-078-094-096-097-241800-
SOUTH MIDDLE TENNESSEE

CITY           SKY/WX    TMP DP  RH WIND       PRES   REMARKS
$$

TNZ017-018-042-046-047-241800-
NORTHEAST TENNESSEE

CITY           SKY/WX    TMP DP  RH WIND       PRES   REMARKS
TRI CITIES     PTSUNNY   71  58  63 SE16G28   29.48F
$$

TNZ012-013-036-069-073-074-241800-
CENTRAL EAST TENNESSEE

CITY           SKY/WX    TMP DP  RH WIND       PRES   REMARKS
KNOXVILLE      LGT RAIN  61  58  90 S12       29.51F
OAK RIDGE      LGT RAIN  64  60  87 VRB6      29.51R
GATLINBURG     CLOUDY    61  55  82 SW9       29.54R
$$

TNZ083-085-099-241800-
SOUTHEAST TENNESSEE

CITY           SKY/WX    TMP DP  RH WIND       PRES   REMARKS
CHATTANOOGA    PTSUNNY   69  60  73 S13       29.50F
$$

SKY/WX REPORTED AS FAIR MEANS FEW OR NO CLOUDS BELOW
12 THOUSAND FEET.





USA.gov is the U.S. government's official web portal to all federal, state and local government web resources and services.